| time (UTC) | temp C | wind direction | speed KPH | gust KPH | rain 1hr cm | rain 24hr cm | rain mn cm | humidity % | barometer mb |
| 20260505063327 | 11 | 52 | 0.0 | 1.6 | 0.00 | 0.00 | 0.00 | 76 | 1008.3 |
| 20260505062824 | 11 | 338 | 1.6 | 1.6 | 0.00 | 0.00 | 0.00 | 76 | 1008.6 |
| 20260505062322 | 11 | 5 | 1.6 | 1.6 | 0.00 | 0.00 | 0.00 | 76 | 1008.4 |
| 20260505061818 | 11 | 291 | 1.6 | 3.2 | 0.00 | 0.00 | 0.00 | 76 | 1008.5 |
| 20260505061317 | 11 | 18 | 0.0 | 0.0 | 0.00 | 0.00 | 0.00 | 76 | 1008.4 |
| 20260505060814 | 12 | 6 | 0.0 | 1.6 | 0.00 | 0.00 | 0.00 | 76 | 1008.4 |
| 20260505060311 | 12 | 25 | 0.0 | 1.6 | 0.00 | 0.00 | 0.00 | 75 | 1008.4 |
| 20260505055806 | 12 | 30 | 0.0 | 0.0 | 0.00 | 0.00 | 0.00 | 75 | 1008.6 |
| 20260505055303 | 12 | 50 | 0.0 | 1.6 | 0.00 | 0.00 | 0.00 | 75 | 1008.4 |
| 20260505054800 | 12 | 7 | 0.0 | 1.6 | 0.00 | 0.00 | 0.00 | 74 | 1008.5 |
| 20260505054257 | 12 | 355 | 1.6 | 1.6 | 0.00 | 0.00 | 0.00 | 74 | 1008.2 |
| 20260505053755 | 12 | 14 | 0.0 | 1.6 | 0.00 | 0.00 | 0.00 | 73 | 1008.4 |
| 20260505053252 | 12 | 16 | 0.0 | 1.6 | 0.00 | 0.00 | 0.00 | 73 | 1008.4 |
| 20260505052749 | 12 | 321 | 1.6 | 3.2 | 0.00 | 0.00 | 0.00 | 73 | 1008.5 |
| 20260505052246 | 12 | 36 | 0.0 | 0.0 | 0.00 | 0.00 | 0.00 | 72 | 1008.5 |
| 20260505051743 | 12 | 24 | 1.6 | 1.6 | 0.00 | 0.00 | 0.00 | 71 | 1008.5 |
| 20260505051241 | 12 | 48 | 0.0 | 1.6 | 0.00 | 0.00 | 0.00 | 71 | 1008.4 |
| 20260505050738 | 12 | 24 | 1.6 | 3.2 | 0.00 | 0.00 | 0.00 | 71 | 1008.4 |
| 20260505050237 | 12 | 19 | 1.6 | 1.6 | 0.00 | 0.00 | 0.00 | 71 | 1008.5 |
| 20260505041706 | 13 | 298 | 3.2 | 3.2 | 0.00 | 0.00 | 0.00 | 67 | 1008.8 |
| 20260505041204 | 13 | 60 | 1.6 | 1.6 | 0.00 | 0.00 | 0.00 | 67 | 1008.5 |
| 20260505040701 | 13 | 16 | 1.6 | 1.6 | 0.00 | 0.00 | 0.00 | 66 | 1008.3 |
| 20260505040158 | 13 | 297 | 3.2 | 3.2 | 0.00 | 0.00 | 0.00 | 66 | 1008.4 |
| 20260505035655 | 13 | 293 | 3.2 | 3.2 | 0.00 | 0.00 | 0.00 | 65 | 1008.5 |
| 20260505035151 | 13 | 30 | 1.6 | 1.6 | 0.00 | 0.00 | 0.00 | 65 | 1008.4 |
| 20260505034647 | 13 | 337 | 3.2 | 3.2 | 0.00 | 0.00 | 0.00 | 64 | 1008.2 |
| 20260505034145 | 13 | 221 | 3.2 | 3.2 | 0.00 | 0.00 | 0.00 | 64 | 1008.3 |
| 20260505033641 | 13 | 13 | 4.8 | 11.3 | 0.00 | 0.00 | 0.00 | 64 | 1008.3 |
| 20260505033139 | 13 | 51 | 3.2 | 4.8 | 0.00 | 0.00 | 0.00 | 64 | 1008.3 |
| 20260505032637 | 13 | 77 | 1.6 | 3.2 | 0.00 | 0.00 | 0.00 | 62 | 1008.2 |
| 20260505032133 | 13 | 313 | 1.6 | 1.6 | 0.00 | 0.00 | 0.00 | 62 | 1008.5 |
| 20260505031630 | 14 | 81 | 1.6 | 1.6 | 0.00 | 0.00 | 0.00 | 61 | 1008.4 |
| 20260505031126 | 13 | 16 | 1.6 | 1.6 | 0.00 | 0.00 | 0.00 | 61 | 1008.2 |
| 20260505030624 | 14 | 21 | 0.0 | 1.6 | 0.00 | 0.00 | 0.00 | 61 | 1008.4 |
| 20260505030119 | 14 | 41 | 3.2 | 3.2 | 0.00 | 0.00 | 0.00 | 60 | 1008.5 |
| 20260505025615 | 14 | 316 | 1.6 | 1.6 | 0.00 | 0.00 | 0.00 | 59 | 1008.5 |
| 20260505025114 | 14 | 43 | 1.6 | 1.6 | 0.00 | 0.00 | 0.00 | 59 | 1008.2 |
| 20260505024611 | 14 | 91 | 1.6 | 1.6 | 0.00 | 0.00 | 0.00 | 58 | 1008.2 |
| 20260505024109 | 14 | 162 | 3.2 | 3.2 | 0.00 | 0.00 | 0.00 | 58 | 1008.5 |
| 20260505023606 | 14 | 321 | 1.6 | 3.2 | 0.00 | 0.00 | 0.00 | 58 | 1008.4 |
| 20260505023103 | 14 | 104 | 1.6 | 3.2 | 0.00 | 0.00 | 0.00 | 57 | 1008.4 |
| 20260505022600 | 15 | 184 | 1.6 | 3.2 | 0.00 | 0.00 | 0.00 | 57 | 1008.3 |
| 20260505022057 | 15 | 58 | 4.8 | 6.4 | 0.00 | 0.00 | 0.00 | 56 | 1008.5 |
| 20260505021554 | 15 | 216 | 3.2 | 4.8 | 0.00 | 0.00 | 0.00 | 56 | 1008.5 |
| 20260505021051 | 14 | 111 | 1.6 | 3.2 | 0.00 | 0.00 | 0.00 | 57 | 1008.4 |
| 20260505020550 | 14 | 185 | 3.2 | 4.8 | 0.00 | 0.00 | 0.00 | 57 | 1008.4 |
| 20260505020048 | 14 | 1 | 1.6 | 1.6 | 0.00 | 0.00 | 0.00 | 57 | 1008.4 |
| 20260505015545 | 14 | 48 | 3.2 | 4.8 | 0.00 | 0.00 | 0.00 | 57 | 1008.3 |
| 20260505015041 | 14 | 40 | 0.0 | 0.0 | 0.00 | 0.00 | 0.00 | 58 | 1008.3 |
| 20260505014538 | 14 | 28 | 1.6 | 1.6 | 0.00 | 0.00 | 0.00 | 59 | 1008.4 |
| 20260505014035 | 14 | 71 | 1.6 | 3.2 | 0.00 | 0.00 | 0.00 | 61 | 1008.2 |
| 20260505013532 | 14 | 122 | 1.6 | 1.6 | 0.00 | 0.00 | 0.00 | 61 | 1008.3 |
| 20260505013030 | 14 | 44 | 3.2 | 6.4 | 0.00 | 0.00 | 0.00 | 61 | 1008.1 |
| 20260505012528 | 15 | 44 | 1.6 | 1.6 | 0.00 | 0.00 | 0.00 | 58 | 1008.2 |
| 20260505012025 | 15 | 158 | 1.6 | 3.2 | 0.00 | 0.00 | 0.00 | 52 | 1008.0 |
| 20260505011520 | 16 | 23 | 3.2 | 9.7 | 0.00 | 0.00 | 0.00 | 51 | 1007.9 |
| 20260505011018 | 16 | 197 | 3.2 | 6.4 | 0.00 | 0.00 | 0.00 | 49 | 1007.9 |
| 20260505010513 | 16 | 200 | 8.0 | 9.7 | 0.00 | 0.00 | 0.00 | 48 | 1007.7 |
| 20260505010010 | 16 | 278 | 6.4 | 6.4 | 0.00 | 0.00 | 0.00 | 48 | 1007.8 |
| 20260505005506 | 16 | 298 | 4.8 | 6.4 | 0.00 | 0.00 | 0.00 | 49 | 1007.5 |
| 20260505005004 | 15 | 289 | 1.6 | 3.2 | 0.00 | 0.00 | 0.00 | 51 | 1007.6 |
| 20260505004501 | 15 | 147 | 3.2 | 3.2 | 0.00 | 0.00 | 0.00 | 53 | 1007.6 |
| 20260505003958 | 15 | 11 | 1.6 | 1.6 | 0.00 | 0.00 | 0.00 | 53 | 1007.5 |
| 20260505003455 | 15 | 131 | 1.6 | 3.2 | 0.00 | 0.00 | 0.00 | 53 | 1007.3 |
| 20260505002950 | 16 | 318 | 6.4 | 11.3 | 0.00 | 0.00 | 0.00 | 53 | 1007.1 |
| 20260505002447 | 16 | 149 | 3.2 | 4.8 | 0.00 | 0.00 | 0.00 | 53 | 1006.9 |
| 20260505001945 | 16 | 187 | 4.8 | 9.7 | 0.00 | 0.00 | 0.00 | 53 | 1007.0 |
| 20260505001442 | 15 | 145 | 4.8 | 6.4 | 0.00 | 0.00 | 0.00 | 55 | 1006.8 |
| 20260505000939 | 15 | 188 | 4.8 | 6.4 | 0.00 | 0.00 | 0.00 | 56 | 1006.7 |
| 20260505000437 | 15 | 186 | 8.0 | 11.3 | 0.00 | 0.00 | 0.00 | 55 | 1006.4 |
| 20260504235934 | 16 | 49 | 3.2 | 3.2 | 0.00 | 0.00 | 0.00 | 55 | 1006.4 |
| 20260504235431 | 16 | 37 | 1.6 | 1.6 | 0.00 | 0.00 | 0.00 | 53 | 1006.5 |
| 20260504234927 | 16 | 102 | 8.0 | 12.9 | 0.00 | 0.00 | 0.00 | 52 | 1006.4 |
| 20260504234425 | 17 | 85 | 3.2 | 4.8 | 0.00 | 0.00 | 0.00 | 49 | 1006.2 |
| 20260504233921 | 17 | 188 | 1.6 | 1.6 | 0.00 | 0.00 | 0.00 | 48 | 1006.2 |
| 20260504233417 | 17 | 112 | 4.8 | 9.7 | 0.00 | 0.00 | 0.00 | 48 | 1006.1 |
| 20260504232914 | 17 | 256 | 8.0 | 11.3 | 0.00 | 0.00 | 0.00 | 46 | 1005.8 |
| 20260504232411 | 18 | 262 | 8.0 | 12.9 | 0.00 | 0.00 | 0.00 | 45 | 1005.8 |
| 20260504231908 | 18 | 336 | 3.2 | 6.4 | 0.00 | 0.00 | 0.00 | 44 | 1005.9 |
| 20260504231404 | 18 | 162 | 6.4 | 9.7 | 0.00 | 0.00 | 0.00 | 44 | 1005.7 |
| 20260504230901 | 18 | 296 | 3.2 | 4.8 | 0.00 | 0.00 | 0.00 | 43 | 1005.6 |
| 20260504230358 | 18 | 273 | 3.2 | 4.8 | 0.00 | 0.00 | 0.00 | 43 | 1005.5 |
| 20260504225857 | 18 | 73 | 1.6 | 1.6 | 0.00 | 0.00 | 0.00 | 43 | 1005.5 |
| 20260504225353 | 19 | 148 | 6.4 | 9.7 | 0.00 | 0.00 | 0.00 | 42 | 1005.4 |
| 20260504224851 | 19 | 207 | 3.2 | 6.4 | 0.00 | 0.00 | 0.00 | 40 | 1005.1 |
| 20260504224347 | 19 | 125 | 4.8 | 9.7 | 0.00 | 0.00 | 0.00 | 40 | 1005.3 |
| 20260504223844 | 19 | 175 | 11.3 | 14.5 | 0.00 | 0.00 | 0.00 | 41 | 1004.9 |
| 20260504223339 | 19 | 313 | 3.2 | 4.8 | 0.00 | 0.00 | 0.00 | 41 | 1005.1 |
| 20260504222836 | 19 | 105 | 8.0 | 12.9 | 0.00 | 0.00 | 0.00 | 40 | 1005.0 |
| 20260504222333 | 20 | 171 | 4.8 | 4.8 | 0.00 | 0.00 | 0.00 | 40 | 1004.9 |
| 20260504221832 | 21 | 203 | 3.2 | 4.8 | 0.00 | 0.00 | 0.00 | 35 | 1005.0 |
| 20260504221328 | 21 | 177 | 3.2 | 4.8 | 0.00 | 0.00 | 0.00 | 30 | 1005.0 |
| 20260504220825 | 21 | 200 | 6.4 | 11.3 | 0.00 | 0.00 | 0.00 | 30 | 1004.8 |
| 20260504220322 | 21 | 307 | 4.8 | 4.8 | 0.00 | 0.00 | 0.00 | 30 | 1004.9 |
| 20260504215819 | 22 | 252 | 3.2 | 4.8 | 0.00 | 0.00 | 0.00 | 29 | 1004.9 |
| 20260504215315 | 22 | 301 | 8.0 | 11.3 | 0.00 | 0.00 | 0.00 | 29 | 1005.0 |
| 20260504214811 | 22 | 3 | 1.6 | 1.6 | 0.00 | 0.00 | 0.00 | 29 | 1004.8 |
| 20260504214309 | 22 | 64 | 3.2 | 3.2 | 0.00 | 0.00 | 0.00 | 28 | 1005.0 |
| 20260504213805 | 22 | 330 | 3.2 | 3.2 | 0.00 | 0.00 | 0.00 | 28 | 1004.8 |
| 20260504213301 | 22 | 276 | 6.4 | 6.4 | 0.00 | 0.00 | 0.00 | 28 | 1004.9 |
| 20260504212759 | 22 | 240 | 6.4 | 11.3 | 0.00 | 0.00 | 0.00 | 28 | 1004.9 |
| 20260504212254 | 22 | 210 | 6.4 | 6.4 | 0.00 | 0.00 | 0.00 | 28 | 1004.8 |
| 20260504211752 | 22 | 334 | 6.4 | 9.7 | 0.00 | 0.00 | 0.00 | 28 | 1004.7 |
| 20260504211248 | 22 | 327 | 6.4 | 6.4 | 0.00 | 0.00 | 0.00 | 27 | 1004.9 |
| 20260504210746 | 22 | 24 | 9.7 | 12.9 | 0.00 | 0.00 | 0.00 | 27 | 1004.6 |
| 20260504210243 | 23 | 245 | 6.4 | 9.7 | 0.00 | 0.00 | 0.00 | 27 | 1004.9 |
| 20260504205740 | 22 | 290 | 3.2 | 3.2 | 0.00 | 0.00 | 0.00 | 27 | 1004.9 |
| 20260504205238 | 23 | 281 | 8.0 | 11.3 | 0.00 | 0.00 | 0.00 | 27 | 1004.7 |
| 20260504204736 | 22 | 8 | 4.8 | 4.8 | 0.00 | 0.00 | 0.00 | 27 | 1004.8 |
| 20260504204234 | 23 | 309 | 4.8 | 12.9 | 0.00 | 0.00 | 0.00 | 26 | 1004.8 |
| 20260504203733 | 23 | 5 | 6.4 | 9.7 | 0.00 | 0.00 | 0.00 | 27 | 1004.9 |
| 20260504203230 | 23 | 330 | 3.2 | 4.8 | 0.00 | 0.00 | 0.00 | 26 | 1004.6 |
| 20260504202729 | 23 | 313 | 6.4 | 9.7 | 0.00 | 0.00 | 0.00 | 26 | 1004.8 |
| 20260504202227 | 22 | 217 | 3.2 | 4.8 | 0.00 | 0.00 | 0.00 | 26 | 1005.0 |
| 20260504201724 | 23 | 359 | 8.0 | 11.3 | 0.00 | 0.00 | 0.00 | 25 | 1005.0 |
| 20260504201221 | 23 | 312 | 6.4 | 6.4 | 0.00 | 0.00 | 0.00 | 25 | 1005.0 |
| 20260504200719 | 23 | 221 | 9.7 | 14.5 | 0.00 | 0.00 | 0.00 | 25 | 1005.0 |
| 20260504200214 | 23 | 227 | 6.4 | 11.3 | 0.00 | 0.00 | 0.00 | 25 | 1005.0 |
| 20260504195711 | 23 | 205 | 3.2 | 3.2 | 0.00 | 0.00 | 0.00 | 25 | 1004.8 |
| 20260504195207 | 23 | 301 | 4.8 | 4.8 | 0.00 | 0.00 | 0.00 | 25 | 1004.8 |
| 20260504194704 | 23 | 273 | 3.2 | 4.8 | 0.00 | 0.00 | 0.00 | 25 | 1005.0 |
| 20260504194200 | 23 | 227 | 6.4 | 6.4 | 0.00 | 0.00 | 0.00 | 25 | 1004.9 |
| 20260504193657 | 22 | 281 | 6.4 | 9.7 | 0.00 | 0.00 | 0.00 | 25 | 1004.8 |
| 20260504193155 | 23 | 197 | 6.4 | 16.1 | 0.00 | 0.00 | 0.00 | 25 | 1004.8 |
| 20260504192652 | 23 | 159 | 3.2 | 3.2 | 0.00 | 0.00 | 0.00 | 25 | 1004.8 |
| 20260504192150 | 22 | 343 | 6.4 | 6.4 | 0.00 | 0.00 | 0.00 | 25 | 1004.9 |
| 20260504191649 | 23 | 43 | 12.9 | 16.1 | 0.00 | 0.00 | 0.00 | 24 | 1004.6 |
| 20260504191144 | 22 | 303 | 3.2 | 3.2 | 0.00 | 0.00 | 0.00 | 25 | 1005.0 |
| 20260504190641 | 23 | 13 | 6.4 | 6.4 | 0.00 | 0.00 | 0.00 | 25 | 1005.0 |
| 20260504190137 | 23 | 329 | 9.7 | 17.7 | 0.00 | 0.00 | 0.00 | 25 | 1005.0 |
| 20260504185634 | 22 | 10 | 3.2 | 4.8 | 0.00 | 0.00 | 0.00 | 26 | 1005.1 |
| 20260504185130 | 22 | 315 | 4.8 | 4.8 | 0.00 | 0.00 | 0.00 | 25 | 1005.0 |
| 20260504184626 | 22 | 283 | 6.4 | 11.3 | 0.00 | 0.00 | 0.00 | 25 | 1005.0 |
| 20260504184121 | 23 | 330 | 3.2 | 6.4 | 0.00 | 0.00 | 0.00 | 25 | 1005.0 |
| 20260504183619 | 22 | 260 | 11.3 | 16.1 | 0.00 | 0.00 | 0.00 | 25 | 1005.3 |
| 20260504183116 | 23 | 29 | 3.2 | 3.2 | 0.00 | 0.00 | 0.00 | 26 | 1004.9 |
| 20260504182614 | 22 | 299 | 8.0 | 14.5 | 0.00 | 0.00 | 0.00 | 26 | 1005.0 |
| 20260504182111 | 22 | 319 | 8.0 | 11.3 | 0.00 | 0.00 | 0.00 | 26 | 1005.2 |
| 20260504181608 | 22 | 267 | 4.8 | 9.7 | 0.00 | 0.00 | 0.00 | 26 | 1005.4 |
| 20260504181106 | 22 | 253 | 14.5 | 22.5 | 0.00 | 0.00 | 0.00 | 26 | 1005.3 |
| 20260504180605 | 22 | 74 | 8.0 | 11.3 | 0.00 | 0.00 | 0.00 | 26 | 1005.5 |
| 20260504180104 | 22 | 226 | 6.4 | 9.7 | 0.00 | 0.00 | 0.00 | 26 | 1005.3 |
| 20260504175600 | 22 | 358 | 4.8 | 6.4 | 0.00 | 0.00 | 0.00 | 26 | 1005.2 |
| 20260504175057 | 22 | 305 | 9.7 | 11.3 | 0.00 | 0.00 | 0.00 | 26 | 1005.5 |
| 20260504174555 | 22 | 207 | 8.0 | 9.7 | 0.00 | 0.00 | 0.00 | 27 | 1005.4 |
| 20260504174051 | 22 | 213 | 4.8 | 6.4 | 0.00 | 0.00 | 0.00 | 27 | 1005.5 |
| 20260504173548 | 21 | 194 | 6.4 | 6.4 | 0.00 | 0.00 | 0.00 | 28 | 1005.3 |
| 20260504173046 | 21 | 331 | 9.7 | 11.3 | 0.00 | 0.00 | 0.00 | 28 | 1005.4 |
| 20260504172542 | 21 | 288 | 8.0 | 11.3 | 0.00 | 0.00 | 0.00 | 27 | 1005.7 |
| 20260504172038 | 22 | 284 | 6.4 | 6.4 | 0.00 | 0.00 | 0.00 | 27 | 1005.6 |
| 20260504171535 | 22 | 226 | 8.0 | 9.7 | 0.00 | 0.00 | 0.00 | 27 | 1005.4 |
| 20260504171032 | 21 | 190 | 6.4 | 11.3 | 0.00 | 0.00 | 0.00 | 28 | 1005.5 |
| 20260504170528 | 21 | 233 | 6.4 | 6.4 | 0.00 | 0.00 | 0.00 | 28 | 1005.2 |
| 20260504150912 | 20 | 257 | 4.8 | 6.4 | 0.00 | 0.00 | 0.00 | 32 | 1006.6 |
| 20260504150409 | 20 | 192 | 11.3 | 22.5 | 0.00 | 0.00 | 0.00 | 32 | 1006.9 |
| 20260504140835 | 18 | 337 | 1.6 | 3.2 | 0.00 | 0.00 | 0.00 | 35 | 1007.2 |
| 20260504140331 | 18 | 348 | 4.8 | 12.9 | 0.00 | 0.00 | 0.00 | 36 | 1007.2 |
| 20260504130800 | 16 | 345 | 4.8 | 6.4 | 0.00 | 0.00 | 0.00 | 39 | 1008.1 |
| 20260504130256 | 16 | 303 | 6.4 | 6.4 | 0.00 | 0.00 | 0.00 | 39 | 1008.3 |
| 20260504120220 | 12 | 188 | 3.2 | 3.2 | 0.00 | 0.00 | 0.00 | 45 | 1008.2 |
| 20260504110641 | 10 | 348 | 1.6 | 1.6 | 0.00 | 0.00 | 0.00 | 48 | 1008.5 |
| 20260504110138 | 10 | 8 | 1.6 | 3.2 | 0.00 | 0.00 | 0.00 | 49 | 1008.4 |
| 20260504100604 | 8 | 353 | 1.6 | 1.6 | 0.00 | 0.00 | 0.00 | 52 | 1008.4 |
| 20260504081957 | 8 | 354 | 1.6 | 1.6 | 0.00 | 0.00 | 0.00 | 53 | 1008.0 |
| 20260504081455 | 8 | 315 | 1.6 | 3.2 | 0.00 | 0.00 | 0.00 | 52 | 1008.3 |
| 20260504080949 | 8 | 309 | 1.6 | 1.6 | 0.00 | 0.00 | 0.00 | 53 | 1008.0 |
| 20260504080447 | 8 | 359 | 0.0 | 1.6 | 0.00 | 0.00 | 0.00 | 53 | 1008.2 |